Weather History for PAMR - November, 2011

Change the Weather History Date:

Tuesday, November 29, 2011

  Actual Average Record
Temperature  
Mean Temperature 14 °F -  
Max Temperature 21 °F 23 °F 41 °F (2004)
Min Temperature 6 °F 12 °F -8 °F (2005)
Degree Days  
Heating Degree Days 52    
Moisture  
Dew Point 11 °F    
Average Humidity 84    
Maximum Humidity 92    
Minimum Humidity 78    
Precipitation  
Precipitation 0.00 in - - ()
Sea Level Pressure  
Sea Level Pressure 29.87 in    
Wind  
Wind Speed 1 mph (NNW)    
Max Wind Speed 8 mph    
Max Gust Speed -    
Visibility 10 miles    
Events      
Averages and records for this station are not official NWS values.
T = Trace of Precipitation, MM = Missing Value Source: NWS Daily Summary

Daily Weather History Graph

Daily Weather History Graph

Search for Another Location

Airport or City:

Trip Planner

Search our weather history database for the weather conditions in past years. The results will help you decide how hot, cold, wet, or windy it might be!

Date:

Astronomy

Nov. 29, 2011 Rise Set
Actual Time 9:40 AM AKST 3:54 PM AKST
Civil Twilight 8:43 AM AKST 4:51 PM AKST
Nautical Twilight 7:46 AM AKST 5:48 PM AKST
Astronomical Twilight 6:53 AM AKST 6:41 PM AKST
Moon 12:54 PM AKST 9:43 PM AKST
Length of Visible Light 8h 08m
Length of Day
6h 13m
Waxing Crescent, 25% of the Moon is Illuminated
Nov 29
Waxing Crescent
Dec 2
First Quarter
Dec 10
Full
Dec 17
Last Quarter
Dec 24
New

Hourly Weather History & Observations

Time (AKST) Temp. Windchill Dew Point Humidity Pressure Visibility Wind Dir Wind Speed Gust Speed Precip Events Conditions
12:53 AM 21.0 °F - 17.1 °F 85% 29.73 in 10.0 mi Calm Calm - 0.00 in   Overcast
1:53 AM 19.0 °F - 15.1 °F 85% 29.74 in 10.0 mi Calm Calm - N/A   Overcast
3:53 AM 14.0 °F - 10.9 °F 88% 29.81 in 10.0 mi Calm Calm - N/A   Mostly Cloudy
4:53 AM 9.0 °F - 7.0 °F 92% 29.85 in 10.0 mi Calm Calm - N/A   Mostly Cloudy
5:53 AM 12.0 °F 5.9 °F 9.0 °F 88% 29.87 in 10.0 mi NW 3.5 mph - N/A   Mostly Cloudy
6:53 AM 10.9 °F 4.7 °F 7.0 °F 84% 29.89 in 10.0 mi NW 3.5 mph - N/A   Partly Cloudy
7:53 AM 8.1 °F - 3.9 °F 83% 29.93 in 10.0 mi Calm Calm - N/A   Clear
8:53 AM 8.1 °F - 3.9 °F 83% 29.95 in 10.0 mi Calm Calm - N/A   Clear
9:53 AM 9.0 °F - 5.0 °F 84% 29.96 in 10.0 mi Calm Calm - N/A   Clear
10:53 AM 6.1 °F - 3.0 °F 87% 29.98 in 10.0 mi Calm Calm - N/A   Partly Cloudy
11:53 AM 7.0 °F - 3.0 °F 84% 30.01 in 10.0 mi Calm Calm - N/A   Clear
12:53 PM 10.9 °F - 7.0 °F 84% 30.00 in 10.0 mi Calm Calm - N/A   Overcast
1:53 PM 14.0 °F - 10.0 °F 84% 30.01 in 10.0 mi Calm Calm - N/A   Overcast
3:53 PM 17.1 °F 11.7 °F 12.9 °F 84% 29.96 in 10.0 mi North 3.5 mph - N/A   Unknown
4:53 PM 18.0 °F - 14.0 °F 84% 29.91 in 10.0 mi Calm Calm - N/A   Mostly Cloudy
5:53 PM 19.0 °F 11.1 °F 15.1 °F 85% 29.88 in 10.0 mi WNW 5.8 mph - N/A   Overcast
6:53 PM 19.9 °F 11.1 °F 14.0 °F 78% 29.84 in 10.0 mi NW 6.9 mph - N/A   Overcast
7:53 PM 19.0 °F 13.9 °F 14.0 °F 81% 29.80 in 10.0 mi NE 3.5 mph - N/A   Overcast
8:53 PM 19.0 °F - 14.0 °F 81% 29.77 in 10.0 mi Calm Calm - N/A   Overcast
9:53 PM 19.9 °F 10.1 °F 15.1 °F 81% 29.74 in 10.0 mi NNW 8.1 mph - N/A   Overcast
10:53 PM 19.9 °F - 16.0 °F 85% 29.73 in 10.0 mi Calm Calm - N/A   Overcast
11:53 PM 21.0 °F 13.4 °F 17.1 °F 85% 29.70 in 10.0 mi NNW 5.8 mph - N/A   Overcast